Time,TemperatureF,DewpointF,PressureIn,WindDirection,WindDirectionDegrees,WindSpeedMPH,WindSpeedGustMPH,Humidity,HourlyPrecipIn,Conditions,Clouds,dailyrainin,SoftwareType,DateUTC
2013-09-05 00:00:00,64.3,56.2,30.14,SSE,152,0.0,0.0,75,0.00,,SKC,0.00,VWS V12.07,2013-09-05 05:00:00,
2013-09-05 00:06:00,64.3,56.2,30.14,SSE,153,0.0,0.0,75,0.00,,SKC,0.00,VWS V12.07,2013-09-05 05:06:00,
2013-09-05 00:12:00,64.2,56.1,30.14,SSE,152,0.0,0.0,75,0.00,,SKC,0.00,VWS V12.07,2013-09-05 05:12:00,
2013-09-05 00:18:00,63.8,56.1,30.14,SSE,152,0.0,0.0,76,0.00,,SKC,0.00,VWS V12.07,2013-09-05 05:18:00,
2013-09-05 00:21:00,63.6,55.9,30.14,SSE,153,0.0,0.0,76,0.00,,SKC,0.00,VWS V12.07,2013-09-05 05:21:00,
2013-09-05 00:27:00,63.3,56.0,30.14,SSE,152,0.0,0.0,77,0.00,,SKC,0.00,VWS V12.07,2013-09-05 05:27:00,
2013-09-05 00:33:00,63.0,56.4,30.14,SSE,153,0.0,0.0,79,0.00,,SKC,0.00,VWS V12.07,2013-09-05 05:33:00,
2013-09-05 00:39:00,62.8,56.2,30.14,SSE,153,0.0,0.0,79,0.00,,SKC,0.00,VWS V12.07,2013-09-05 05:39:00,
2013-09-05 00:45:00,62.5,56.2,30.14,SSE,152,0.0,0.0,80,0.00,,SKC,0.00,VWS V12.07,2013-09-05 05:45:00,
2013-09-05 00:51:00,62.4,56.5,30.14,SSE,153,0.0,0.0,81,0.00,,SKC,0.00,VWS V12.07,2013-09-05 05:51:00,
2013-09-05 00:57:00,62.2,56.3,30.14,SSE,152,0.0,0.0,81,0.00,,SKC,0.00,VWS V12.07,2013-09-05 05:57:00,
2013-09-05 01:03:00,62.1,56.5,30.14,SSE,153,0.0,0.0,82,0.00,,SKC,0.00,VWS V12.07,2013-09-05 06:03:00,
2013-09-05 01:09:00,62.2,56.6,30.14,SSE,152,0.0,0.0,82,0.00,,SKC,0.00,VWS V12.07,2013-09-05 06:09:00,
2013-09-05 01:15:00,62.2,57.0,30.15,SSE,152,0.0,0.0,83,0.00,,SKC,0.00,VWS V12.07,2013-09-05 06:15:00,
2013-09-05 01:21:00,62.1,56.9,30.15,SSE,153,0.0,0.0,83,0.00,,SKC,0.00,VWS V12.07,2013-09-05 06:21:00,
2013-09-05 01:26:00,62.3,56.7,30.15,SSE,152,0.0,0.0,82,0.00,,SKC,0.00,VWS V12.07,2013-09-05 06:26:00,
2013-09-05 01:31:00,62.3,56.4,30.15,SSE,152,0.0,0.0,81,0.00,,SKC,0.00,VWS V12.07,2013-09-05 06:31:00,
2013-09-05 01:38:00,61.8,56.2,30.15,SSE,152,0.0,0.0,82,0.00,,SKC,0.00,VWS V12.07,2013-09-05 06:38:00,
2013-09-05 01:43:00,61.4,56.2,30.15,SSE,153,0.0,0.0,83,0.00,,SKC,0.00,VWS V12.07,2013-09-05 06:43:00,
2013-09-05 01:49:00,61.2,56.3,30.15,SSE,153,0.0,0.0,84,0.00,,SKC,0.00,VWS V12.07,2013-09-05 06:49:00,
2013-09-05 01:56:00,60.8,55.9,30.15,SSE,153,0.0,0.0,84,0.00,,SKC,0.00,VWS V12.07,2013-09-05 06:56:00,
2013-09-05 02:02:00,60.5,56.0,30.15,SSE,152,0.0,0.0,85,0.00,,SKC,0.00,VWS V12.07,2013-09-05 07:02:00,
2013-09-05 02:09:00,60.2,56.0,30.15,SSE,153,0.0,0.0,86,0.00,,SKC,0.00,VWS V12.07,2013-09-05 07:09:00,
2013-09-05 02:14:00,60.2,56.6,30.15,SSE,152,0.0,0.0,88,0.00,,SKC,0.00,VWS V12.07,2013-09-05 07:14:00,
2013-09-05 02:19:00,60.3,56.4,30.15,SSE,152,0.0,0.0,87,0.00,,SKC,0.00,VWS V12.07,2013-09-05 07:19:00,
2013-09-05 02:24:00,60.2,56.3,30.15,SSE,153,0.0,0.0,87,0.00,,SKC,0.00,VWS V12.07,2013-09-05 07:24:00,
2013-09-05 02:30:00,60.1,56.5,30.15,SSE,152,0.0,0.0,88,0.00,,SKC,0.00,VWS V12.07,2013-09-05 07:30:00,
2013-09-05 02:36:00,60.0,56.8,30.15,SSE,152,0.0,0.0,89,0.00,,SKC,0.00,VWS V12.07,2013-09-05 07:36:00,
2013-09-05 02:41:00,60.0,56.8,30.15,SSE,152,0.0,0.0,89,0.00,,SKC,0.00,VWS V12.07,2013-09-05 07:41:00,
2013-09-05 02:46:00,60.2,57.0,30.15,SSE,153,0.0,0.0,89,0.00,,SKC,0.00,VWS V12.07,2013-09-05 07:46:00,
2013-09-05 02:51:00,60.3,57.0,30.15,SSE,152,0.0,0.0,89,0.00,,SKC,0.00,VWS V12.07,2013-09-05 07:51:00,
2013-09-05 02:57:00,60.5,57.2,30.15,SSE,152,0.0,0.0,89,0.00,,SKC,0.00,VWS V12.07,2013-09-05 07:57:00,
2013-09-05 03:02:00,60.5,57.2,30.15,SSE,153,0.0,0.0,89,0.00,,SKC,0.00,VWS V12.07,2013-09-05 08:02:00,
2013-09-05 03:09:00,60.4,56.8,30.15,SSE,152,0.0,0.0,88,0.00,,SKC,0.00,VWS V12.07,2013-09-05 08:09:00,
2013-09-05 03:16:00,60.3,57.0,30.15,SSE,153,0.0,0.0,89,0.00,,SKC,0.00,VWS V12.07,2013-09-05 08:16:00,
2013-09-05 03:22:00,60.5,57.2,30.15,SSE,152,0.0,0.0,89,0.00,,SKC,0.00,VWS V12.07,2013-09-05 08:22:00,
2013-09-05 03:28:00,60.4,57.5,30.15,SSE,153,0.0,0.0,90,0.00,,SKC,0.00,VWS V12.07,2013-09-05 08:28:00,
2013-09-05 03:34:00,60.6,57.3,30.15,SSE,152,0.0,0.0,89,0.00,,SKC,0.00,VWS V12.07,2013-09-05 08:34:00,
2013-09-05 03:40:00,60.9,57.6,30.15,SSE,152,0.0,0.0,89,0.00,,SKC,0.00,VWS V12.07,2013-09-05 08:40:00,
2013-09-05 03:46:00,61.1,57.8,30.15,SSE,152,0.0,0.0,89,0.00,,SKC,0.00,VWS V12.07,2013-09-05 08:46:00,
2013-09-05 03:51:00,61.4,58.1,30.15,SSE,153,0.0,0.0,89,0.00,,SKC,0.00,VWS V12.07,2013-09-05 08:51:00,
2013-09-05 03:57:00,61.6,57.7,30.15,SSE,153,0.0,0.0,87,0.00,,SKC,0.00,VWS V12.07,2013-09-05 08:57:00,
2013-09-05 04:03:00,61.3,57.4,30.15,SSE,153,0.0,0.0,87,0.00,,SKC,0.00,VWS V12.07,2013-09-05 09:03:00,
2013-09-05 04:11:00,61.3,57.4,30.15,SSE,152,0.0,0.0,87,0.00,,SKC,0.00,VWS V12.07,2013-09-05 09:11:00,
2013-09-05 04:16:00,61.2,57.6,30.15,SSE,153,0.0,0.0,88,0.00,,SKC,0.00,VWS V12.07,2013-09-05 09:16:00,
2013-09-05 04:22:00,61.3,57.4,30.15,SSE,153,0.0,0.0,87,0.00,,SKC,0.00,VWS V12.07,2013-09-05 09:22:00,
2013-09-05 04:28:00,61.2,57.6,30.15,SSE,152,0.0,0.0,88,0.00,,SKC,0.00,VWS V12.07,2013-09-05 09:28:00,
2013-09-05 04:34:00,61.0,57.4,30.15,SSE,153,0.0,0.0,88,0.00,,SKC,0.00,VWS V12.07,2013-09-05 09:34:00,
2013-09-05 04:39:00,60.7,57.4,30.15,SSE,153,0.0,0.0,89,0.00,,SKC,0.00,VWS V12.07,2013-09-05 09:39:00,
2013-09-05 04:44:00,60.4,57.2,30.15,SSE,153,0.0,0.0,89,0.00,,SKC,0.00,VWS V12.07,2013-09-05 09:44:00,
2013-09-05 04:50:00,60.1,56.8,30.15,SSE,152,0.0,0.0,89,0.00,,SKC,0.00,VWS V12.07,2013-09-05 09:50:00,
2013-09-05 04:56:00,60.0,56.8,30.15,SSE,152,0.0,0.0,89,0.00,,SKC,0.00,VWS V12.07,2013-09-05 09:56:00,
2013-09-05 05:02:00,59.8,56.9,30.15,SSE,152,0.0,0.0,90,0.00,,SKC,0.00,VWS V12.07,2013-09-05 10:02:00,
2013-09-05 05:08:00,59.7,57.1,30.15,SSE,152,0.0,0.0,91,0.00,,SKC,0.00,VWS V12.07,2013-09-05 10:08:00,
2013-09-05 05:13:00,60.2,57.6,30.15,SSE,152,0.0,0.0,91,0.00,,SKC,0.00,VWS V12.07,2013-09-05 10:13:00,
2013-09-05 05:18:00,60.5,57.6,30.15,SSE,152,0.0,0.0,90,0.00,,SKC,0.00,VWS V12.07,2013-09-05 10:18:00,
2013-09-05 05:24:00,60.5,57.6,30.15,SSE,153,0.0,0.0,90,0.00,,SKC,0.00,VWS V12.07,2013-09-05 10:24:00,
2013-09-05 05:30:00,60.7,57.8,30.16,SSE,153,0.0,0.0,90,0.00,,SKC,0.00,VWS V12.07,2013-09-05 10:30:00,
2013-09-05 05:36:00,60.9,58.0,30.16,SSE,152,0.0,0.0,90,0.00,,SKC,0.00,VWS V12.07,2013-09-05 10:36:00,
2013-09-05 05:42:00,61.0,57.7,30.16,SSE,152,0.0,0.0,89,0.00,,SKC,0.00,VWS V12.07,2013-09-05 10:42:00,
2013-09-05 05:48:00,60.7,57.4,30.16,SSE,152,0.0,0.0,89,0.00,,SKC,0.00,VWS V12.07,2013-09-05 10:48:00,
2013-09-05 05:54:00,60.0,56.4,30.16,SSE,152,0.0,0.0,88,0.00,,SKC,0.00,VWS V12.07,2013-09-05 10:54:00,
2013-09-05 06:00:00,59.6,56.4,30.16,SSE,152,0.0,0.0,89,0.00,,SKC,0.00,VWS V12.07,2013-09-05 11:00:00,
2013-09-05 06:05:00,59.3,56.1,30.17,SSE,152,0.0,0.0,89,0.00,,SKC,0.00,VWS V12.07,2013-09-05 11:05:00,
2013-09-05 06:11:00,59.6,57.3,30.17,SSE,153,0.0,0.0,92,0.00,,SKC,0.00,VWS V12.07,2013-09-05 11:11:00,
2013-09-05 06:16:00,59.9,57.3,30.17,SSE,153,0.0,0.0,91,0.00,,SKC,0.00,VWS V12.07,2013-09-05 11:16:00,
2013-09-05 06:24:00,60.2,57.6,30.17,SSE,153,0.0,0.0,91,0.00,,SKC,0.00,VWS V12.07,2013-09-05 11:24:00,
2013-09-05 06:30:00,60.1,57.2,30.17,SSE,152,0.0,0.0,90,0.00,,SKC,0.00,VWS V12.07,2013-09-05 11:30:00,
2013-09-05 06:36:00,59.7,56.8,30.17,SSE,152,0.0,0.0,90,0.00,,SKC,0.00,VWS V12.07,2013-09-05 11:36:00,
2013-09-05 06:42:00,59.5,56.9,30.17,SSE,153,0.0,0.0,91,0.00,,SKC,0.00,VWS V12.07,2013-09-05 11:42:00,
2013-09-05 06:48:00,59.4,57.1,30.17,SSE,152,0.0,0.0,92,0.00,,SKC,0.00,VWS V12.07,2013-09-05 11:48:00,
2013-09-05 06:53:00,59.4,57.1,30.17,SSE,152,0.0,0.0,92,0.00,,SKC,0.00,VWS V12.07,2013-09-05 11:53:00,
2013-09-05 06:59:00,59.4,57.1,30.17,SSE,152,0.0,0.0,92,0.00,,SKC,0.00,VWS V12.07,2013-09-05 11:59:00,
2013-09-05 07:06:00,59.5,57.5,30.17,SSE,153,0.0,0.0,93,0.00,,SKC,0.00,VWS V12.07,2013-09-05 12:06:00,
2013-09-05 07:11:00,59.7,57.7,30.17,SSE,153,0.0,0.0,93,0.00,,SKC,0.00,VWS V12.07,2013-09-05 12:11:00,
2013-09-05 07:19:00,60.6,58.3,30.17,SSE,153,0.0,0.0,92,0.00,,SKC,0.00,VWS V12.07,2013-09-05 12:19:00,
2013-09-05 07:27:00,61.2,58.2,30.17,SSE,153,0.0,0.0,90,0.00,,SKC,0.00,VWS V12.07,2013-09-05 12:27:00,
2013-09-05 07:32:00,61.4,58.5,30.17,SSE,153,0.0,0.0,90,0.00,,SKC,0.00,VWS V12.07,2013-09-05 12:32:00,
2013-09-05 07:38:00,61.8,58.8,30.17,SSE,153,0.0,0.0,90,0.00,,SKC,0.00,VWS V12.07,2013-09-05 12:38:00,
2013-09-05 07:45:00,62.8,59.8,30.18,SSE,152,0.0,0.0,90,0.00,,SKC,0.00,VWS V12.07,2013-09-05 12:45:00,
2013-09-05 07:51:00,63.5,59.9,30.18,SSE,153,0.0,0.0,88,0.00,,SKC,0.00,VWS V12.07,2013-09-05 12:51:00,
2013-09-05 07:57:00,65.1,61.5,30.17,SSE,152,0.0,0.0,88,0.00,,SKC,0.00,VWS V12.07,2013-09-05 12:57:00,
2013-09-05 08:02:00,66.9,61.9,30.18,SSE,152,0.0,0.0,84,0.00,,SKC,0.00,VWS V12.07,2013-09-05 13:02:00,
2013-09-05 08:08:00,68.0,61.6,30.18,SSE,153,0.0,0.0,80,0.00,,SKC,0.00,VWS V12.07,2013-09-05 13:08:00,
2013-09-05 08:13:00,68.6,61.8,30.18,SSE,152,0.0,0.0,79,0.00,,SKC,0.00,VWS V12.07,2013-09-05 13:13:00,
2013-09-05 08:19:00,68.9,61.8,30.18,SSE,152,0.0,0.0,78,0.00,,SKC,0.00,VWS V12.07,2013-09-05 13:19:00,
2013-09-05 08:25:00,69.3,61.8,30.18,SSE,152,0.0,0.0,77,0.00,,SKC,0.00,VWS V12.07,2013-09-05 13:25:00,
2013-09-05 08:30:00,69.7,62.2,30.18,SSE,152,0.0,0.0,77,0.00,,SKC,0.00,VWS V12.07,2013-09-05 13:30:00,
2013-09-05 08:37:00,70.0,62.5,30.18,SSE,152,0.0,0.0,77,0.00,,SKC,0.00,VWS V12.07,2013-09-05 13:37:00,
2013-09-05 08:44:00,70.5,61.8,30.18,SSE,152,0.0,1.0,74,0.00,,SKC,0.00,VWS V12.07,2013-09-05 13:44:00,
2013-09-05 08:49:00,70.6,61.5,30.18,SSE,159,0.0,1.0,73,0.00,,SKC,0.00,VWS V12.07,2013-09-05 13:49:00,
2013-09-05 08:54:00,71.1,61.6,30.18,WSW,246,0.0,1.0,72,0.00,,SKC,0.00,VWS V12.07,2013-09-05 13:54:00,
2013-09-05 09:01:00,71.5,62.0,30.18,NW,304,0.0,1.0,72,0.00,,SKC,0.00,VWS V12.07,2013-09-05 14:01:00,
2013-09-05 09:06:00,71.8,61.5,30.18,NW,307,0.0,1.0,70,0.00,,SKC,0.00,VWS V12.07,2013-09-05 14:06:00,
2013-09-05 09:11:00,72.0,61.7,30.18,NW,307,0.0,1.0,70,0.00,,SKC,0.00,VWS V12.07,2013-09-05 14:11:00,
2013-09-05 09:16:00,72.3,62.0,30.18,NW,315,0.0,2.0,70,0.00,,SKC,0.00,VWS V12.07,2013-09-05 14:16:00,
2013-09-05 09:21:00,72.8,62.5,30.19,NW,319,0.0,2.0,70,0.00,,SKC,0.00,VWS V12.07,2013-09-05 14:21:00,
2013-09-05 09:26:00,73.9,62.7,30.18,NW,319,0.0,2.0,68,0.00,,SKC,0.00,VWS V12.07,2013-09-05 14:26:00,
2013-09-05 09:33:00,75.4,62.8,30.19,NNW,330,0.0,0.0,65,0.00,,SKC,0.00,VWS V12.07,2013-09-05 14:33:00,
2013-09-05 09:39:00,76.3,62.3,30.19,North,1,1.0,3.0,62,0.00,,SKC,0.00,VWS V12.07,2013-09-05 14:39:00,
2013-09-05 09:46:00,77.1,63.5,30.19,NW,305,3.0,4.0,63,0.00,,SKC,0.00,VWS V12.07,2013-09-05 14:46:00,
2013-09-05 09:52:00,78.0,63.9,30.19,NW,308,2.0,4.0,62,0.00,,SKC,0.00,VWS V12.07,2013-09-05 14:52:00,
2013-09-05 09:58:00,78.6,64.0,30.19,North,6,0.0,4.0,61,0.00,,SKC,0.00,VWS V12.07,2013-09-05 14:58:00,
2013-09-05 10:06:00,79.9,64.8,30.19,NNW,327,1.0,4.0,60,0.00,,SKC,0.00,VWS V12.07,2013-09-05 15:06:00,
2013-09-05 10:11:00,80.3,64.7,30.19,East,81,4.0,4.0,59,0.00,,SKC,0.00,VWS V12.07,2013-09-05 15:11:00,
2013-09-05 10:16:00,80.8,64.2,30.19,NW,307,3.0,4.0,57,0.00,,SKC,0.00,VWS V12.07,2013-09-05 15:16:00,
2013-09-05 10:21:00,81.1,64.4,30.19,NW,315,1.0,4.0,57,0.00,,SKC,0.00,VWS V12.07,2013-09-05 15:21:00,
2013-09-05 10:26:00,81.5,64.3,30.19,WNW,290,3.0,4.0,56,0.00,,SKC,0.00,VWS V12.07,2013-09-05 15:26:00,
2013-09-05 10:33:00,82.7,64.4,30.19,NE,34,0.0,1.0,54,0.00,,SKC,0.00,VWS V12.07,2013-09-05 15:33:00,
2013-09-05 10:38:00,83.2,63.8,30.18,NE,36,0.0,3.0,52,0.00,,SKC,0.00,VWS V12.07,2013-09-05 15:38:00,
2013-09-05 10:44:00,83.2,64.3,30.18,ENE,72,0.0,3.0,53,0.00,,SKC,0.00,VWS V12.07,2013-09-05 15:44:00,
2013-09-05 10:49:00,83.9,64.4,30.19,NE,42,0.0,3.0,52,0.00,,SKC,0.00,VWS V12.07,2013-09-05 15:49:00,
2013-09-05 10:55:00,84.3,64.2,30.19,SE,129,2.0,5.0,51,0.00,,SKC,0.00,VWS V12.07,2013-09-05 15:55:00,
2013-09-05 11:01:00,84.5,66.1,30.19,ESE,103,0.0,5.0,54,0.00,,SKC,0.00,VWS V12.07,2013-09-05 16:01:00,
2013-09-05 11:07:00,85.4,64.7,30.19,ESE,117,0.0,5.0,50,0.00,,SKC,0.00,VWS V12.07,2013-09-05 16:07:00,
2013-09-05 11:13:00,85.4,63.5,30.19,SW,235,0.0,5.0,48,0.00,,SKC,0.00,VWS V12.07,2013-09-05 16:13:00,
2013-09-05 11:19:00,85.4,62.9,30.19,East,81,0.0,8.0,47,0.00,,SKC,0.00,VWS V12.07,2013-09-05 16:19:00,
2013-09-05 11:25:00,85.8,63.3,30.19,SE,146,5.0,8.0,47,0.00,,SKC,0.00,VWS V12.07,2013-09-05 16:25:00,
2013-09-05 11:31:00,86.4,62.6,30.19,ENE,72,2.0,8.0,45,0.00,,SKC,0.00,VWS V12.07,2013-09-05 16:31:00,
2013-09-05 11:36:00,85.7,62.6,30.19,East,98,2.0,5.0,46,0.00,,SKC,0.00,VWS V12.07,2013-09-05 16:36:00,
2013-09-05 11:42:00,86.5,61.4,30.19,NE,54,1.0,9.0,43,0.00,,SKC,0.00,VWS V12.07,2013-09-05 16:42:00,
2013-09-05 11:48:00,86.9,61.7,30.18,ESE,114,3.0,9.0,43,0.00,,SKC,0.00,VWS V12.07,2013-09-05 16:48:00,
2013-09-05 11:54:00,86.7,61.5,30.18,SE,143,2.0,9.0,43,0.00,,SKC,0.00,VWS V12.07,2013-09-05 16:54:00,
2013-09-05 11:59:00,87.1,61.2,30.18,NE,50,1.0,9.0,42,0.00,,SKC,0.00,VWS V12.07,2013-09-05 16:59:00,
2013-09-05 12:06:00,86.8,61.6,30.18,South,177,2.0,6.0,43,0.00,,SKC,0.00,VWS V12.07,2013-09-05 17:06:00,
2013-09-05 12:12:00,87.9,61.3,30.18,SSE,166,1.0,7.0,41,0.00,,SKC,0.00,VWS V12.07,2013-09-05 17:12:00,
2013-09-05 12:18:00,88.1,60.8,30.18,ENE,76,2.0,11.0,40,0.00,,SKC,0.00,VWS V12.07,2013-09-05 17:18:00,
2013-09-05 12:24:00,87.7,61.1,30.18,SSE,154,4.0,11.0,41,0.00,,SKC,0.00,VWS V12.07,2013-09-05 17:24:00,
2013-09-05 12:31:00,87.3,61.4,30.17,NW,323,1.0,11.0,42,0.00,,SKC,0.00,VWS V12.07,2013-09-05 17:31:00,
2013-09-05 12:36:00,87.2,60.7,30.17,NNW,333,1.0,6.0,41,0.00,,SKC,0.00,VWS V12.07,2013-09-05 17:36:00,
2013-09-05 12:42:00,87.3,61.4,30.17,ESE,104,4.0,6.0,42,0.00,,SKC,0.00,VWS V12.07,2013-09-05 17:42:00,
2013-09-05 12:49:00,88.0,60.0,30.17,WSW,238,3.0,11.0,39,0.00,,SKC,0.00,VWS V12.07,2013-09-05 17:49:00,
2013-09-05 12:55:00,88.4,60.3,30.17,SSE,159,4.0,11.0,39,0.00,,SKC,0.00,VWS V12.07,2013-09-05 17:55:00,
2013-09-05 13:01:00,89.2,60.3,30.16,ESE,102,3.0,11.0,38,0.00,,SKC,0.00,VWS V12.07,2013-09-05 18:01:00,
2013-09-05 13:07:00,88.3,60.2,30.16,ENE,71,2.0,6.0,39,0.00,,SKC,0.00,VWS V12.07,2013-09-05 18:07:00,
2013-09-05 13:13:00,88.4,59.6,30.16,ESE,120,3.0,10.0,38,0.00,,SKC,0.00,VWS V12.07,2013-09-05 18:13:00,
2013-09-05 13:19:00,88.4,59.6,30.16,WNW,291,2.0,10.0,38,0.00,,SKC,0.00,VWS V12.07,2013-09-05 18:19:00,
2013-09-05 13:25:00,88.5,61.1,30.16,ESE,107,2.0,10.0,40,0.00,,SKC,0.00,VWS V12.07,2013-09-05 18:25:00,
2013-09-05 13:31:00,89.7,62.2,30.16,East,98,7.0,10.0,40,0.00,,SKC,0.00,VWS V12.07,2013-09-05 18:31:00,
2013-09-05 13:37:00,88.9,60.8,30.15,SW,214,0.0,10.0,39,0.00,,SKC,0.00,VWS V12.07,2013-09-05 18:37:00,
2013-09-05 13:43:00,88.9,60.8,30.15,SE,124,2.0,10.0,39,0.00,,SKC,0.00,VWS V12.07,2013-09-05 18:43:00,
2013-09-05 13:49:00,89.3,61.1,30.15,SE,139,0.0,10.0,39,0.00,,SKC,0.00,VWS V12.07,2013-09-05 18:49:00,
2013-09-05 13:55:00,89.3,61.1,30.15,NW,323,1.0,10.0,39,0.00,,SKC,0.00,VWS V12.07,2013-09-05 18:55:00,
2013-09-05 14:01:00,89.2,61.8,30.15,North,356,4.0,4.0,40,0.00,,SKC,0.00,VWS V12.07,2013-09-05 19:01:00,
2013-09-05 14:07:00,89.4,61.9,30.14,SE,137,4.0,7.0,40,0.00,,SKC,0.00,VWS V12.07,2013-09-05 19:07:00,
2013-09-05 14:13:00,89.5,61.3,30.14,ENE,67,2.0,10.0,39,0.00,,SKC,0.00,VWS V12.07,2013-09-05 19:13:00,
2013-09-05 14:19:00,89.2,60.3,30.14,ESE,120,2.0,10.0,38,0.00,,SKC,0.00,VWS V12.07,2013-09-05 19:19:00,
2013-09-05 14:25:00,89.2,59.5,30.14,ENE,63,4.0,10.0,37,0.00,,SKC,0.00,VWS V12.07,2013-09-05 19:25:00,
2013-09-05 14:31:00,89.4,57.4,30.14,NE,49,1.0,1.0,34,0.00,,SKC,0.00,VWS V12.07,2013-09-05 19:31:00,
2013-09-05 14:37:00,89.4,60.5,30.14,WNW,290,1.0,4.0,38,0.00,,SKC,0.00,VWS V12.07,2013-09-05 19:37:00,
2013-09-05 14:43:00,89.4,61.2,30.13,SE,143,2.0,10.0,39,0.00,,SKC,0.00,VWS V12.07,2013-09-05 19:43:00,
2013-09-05 14:49:00,88.7,60.6,30.13,East,81,0.0,10.0,39,0.00,,SKC,0.00,VWS V12.07,2013-09-05 19:49:00,
2013-09-05 14:55:00,88.1,61.5,30.13,SE,141,3.0,10.0,41,0.00,,SKC,0.00,VWS V12.07,2013-09-05 19:55:00,
2013-09-05 15:01:00,88.5,60.4,30.13,SE,145,1.0,2.0,39,0.00,,SKC,0.00,VWS V12.07,2013-09-05 20:01:00,
2013-09-05 15:07:00,89.0,60.8,30.12,SSE,152,3.0,8.0,39,0.00,,SKC,0.00,VWS V12.07,2013-09-05 20:07:00,
2013-09-05 15:13:00,89.8,60.8,30.12,SE,140,1.0,8.0,38,0.00,,SKC,0.00,VWS V12.07,2013-09-05 20:13:00,
2013-09-05 15:19:00,89.9,60.9,30.12,SE,136,3.0,8.0,38,0.00,,SKC,0.00,VWS V12.07,2013-09-05 20:19:00,
2013-09-05 15:25:00,89.8,60.8,30.12,East,100,6.0,9.0,38,0.00,,SKC,0.00,VWS V12.07,2013-09-05 20:25:00,
2013-09-05 15:31:00,90.4,61.4,30.12,SSE,151,2.0,3.0,38,0.00,,SKC,0.00,VWS V12.07,2013-09-05 20:31:00,
2013-09-05 15:37:00,90.0,58.7,30.12,ENE,67,2.0,9.0,35,0.00,,SKC,0.00,VWS V12.07,2013-09-05 20:37:00,
2013-09-05 15:43:00,89.7,60.7,30.12,SSE,156,4.0,9.0,38,0.00,,SKC,0.00,VWS V12.07,2013-09-05 20:43:00,
2013-09-05 15:49:00,89.7,61.5,30.12,South,188,2.0,9.0,39,0.00,,SKC,0.00,VWS V12.07,2013-09-05 20:49:00,
2013-09-05 15:55:00,89.0,60.8,30.12,SSE,157,3.0,9.0,39,0.00,,SKC,0.00,VWS V12.07,2013-09-05 20:55:00,
2013-09-05 16:01:00,88.3,60.9,30.12,SE,141,0.0,1.0,40,0.00,,SKC,0.00,VWS V12.07,2013-09-05 21:01:00,
2013-09-05 16:07:00,87.9,60.6,30.12,ESE,117,3.0,8.0,40,0.00,,SKC,0.00,VWS V12.07,2013-09-05 21:07:00,
2013-09-05 16:13:00,87.6,61.0,30.12,South,170,4.0,8.0,41,0.00,,SKC,0.00,VWS V12.07,2013-09-05 21:13:00,
2013-09-05 16:19:00,87.4,60.1,30.13,SSE,150,2.0,10.0,40,0.00,,SKC,0.00,VWS V12.07,2013-09-05 21:19:00,
2013-09-05 16:25:00,87.5,60.2,30.12,SE,136,3.0,10.0,40,0.00,,SKC,0.00,VWS V12.07,2013-09-05 21:25:00,
2013-09-05 16:31:00,87.7,59.7,30.13,SSE,163,2.0,2.0,39,0.00,,SKC,0.00,VWS V12.07,2013-09-05 21:31:00,
2013-09-05 16:37:00,87.8,59.8,30.12,SE,145,3.0,6.0,39,0.00,,SKC,0.00,VWS V12.07,2013-09-05 21:37:00,
2013-09-05 16:43:00,87.5,59.5,30.12,SE,143,4.0,6.0,39,0.00,,SKC,0.00,VWS V12.07,2013-09-05 21:43:00,
2013-09-05 16:49:00,87.5,59.5,30.12,SE,126,5.0,7.0,39,0.00,,SKC,0.00,VWS V12.07,2013-09-05 21:49:00,
2013-09-05 16:55:00,87.1,58.4,30.12,SSW,212,2.0,8.0,38,0.00,,SKC,0.00,VWS V12.07,2013-09-05 21:55:00,
2013-09-05 17:01:00,87.1,58.4,30.12,South,183,2.0,4.0,38,0.00,,SKC,0.00,VWS V12.07,2013-09-05 22:01:00,
2013-09-05 17:07:00,87.1,57.7,30.12,SE,132,3.0,8.0,37,0.00,,SKC,0.00,VWS V12.07,2013-09-05 22:07:00,
2013-09-05 17:13:00,86.9,57.5,30.12,ESE,110,2.0,8.0,37,0.00,,SKC,0.00,VWS V12.07,2013-09-05 22:13:00,
2013-09-05 17:19:00,86.7,58.1,30.12,NE,54,2.0,8.0,38,0.00,,SKC,0.00,VWS V12.07,2013-09-05 22:19:00,
2013-09-05 17:25:00,86.6,58.0,30.12,ESE,120,2.0,8.0,38,0.00,,SKC,0.00,VWS V12.07,2013-09-05 22:25:00,
2013-09-05 17:31:00,86.5,57.9,30.12,ESE,122,1.0,2.0,38,0.00,,SKC,0.00,VWS V12.07,2013-09-05 22:31:00,
2013-09-05 17:37:00,86.5,59.3,30.12,SE,143,1.0,5.0,40,0.00,,SKC,0.00,VWS V12.07,2013-09-05 22:37:00,
2013-09-05 17:43:00,86.1,59.7,30.12,SE,133,0.0,5.0,41,0.00,,SKC,0.00,VWS V12.07,2013-09-05 22:43:00,
2013-09-05 17:49:00,85.8,60.1,30.12,SSE,153,0.0,5.0,42,0.00,,SKC,0.00,VWS V12.07,2013-09-05 22:49:00,
2013-09-05 17:55:00,85.4,61.0,30.12,SSE,168,1.0,5.0,44,0.00,,SKC,0.00,VWS V12.07,2013-09-05 22:55:00,
2013-09-05 18:01:00,84.9,61.8,30.12,SSE,156,1.0,4.0,46,0.00,,SKC,0.00,VWS V12.07,2013-09-05 23:01:00,
2013-09-05 18:07:00,84.5,62.1,30.12,SSE,153,0.0,4.0,47,0.00,,SKC,0.00,VWS V12.07,2013-09-05 23:07:00,
2013-09-05 18:13:00,84.0,62.2,30.12,SE,138,0.0,4.0,48,0.00,,SKC,0.00,VWS V12.07,2013-09-05 23:13:00,
2013-09-05 18:19:00,83.6,62.4,30.12,SE,138,0.0,4.0,49,0.00,,SKC,0.00,VWS V12.07,2013-09-05 23:19:00,
2013-09-05 18:25:00,83.0,62.5,30.12,SE,133,2.0,4.0,50,0.00,,SKC,0.00,VWS V12.07,2013-09-05 23:25:00,
2013-09-05 18:31:00,82.5,62.6,30.12,SE,141,1.0,2.0,51,0.00,,SKC,0.00,VWS V12.07,2013-09-05 23:31:00,
2013-09-05 18:37:00,82.0,62.7,30.12,SE,138,2.0,4.0,52,0.00,,SKC,0.00,VWS V12.07,2013-09-05 23:37:00,
2013-09-05 18:43:00,81.4,62.6,30.12,ESE,120,2.0,4.0,53,0.00,,SKC,0.00,VWS V12.07,2013-09-05 23:43:00,
2013-09-05 18:49:00,80.9,62.7,30.12,SE,134,1.0,4.0,54,0.00,,SKC,0.00,VWS V12.07,2013-09-05 23:49:00,
2013-09-05 18:55:00,80.4,62.8,30.12,ESE,122,0.0,4.0,55,0.00,,SKC,0.00,VWS V12.07,2013-09-05 23:55:00,
2013-09-05 19:01:00,80.0,62.9,30.11,ESE,110,0.0,0.0,56,0.00,,SKC,0.00,VWS V12.07,2013-09-06 00:01:00,
2013-09-05 19:07:00,79.7,62.6,30.11,East,96,0.0,2.0,56,0.00,,SKC,0.00,VWS V12.07,2013-09-06 00:07:00,
2013-09-05 19:13:00,79.4,62.3,30.12,ESE,120,0.0,2.0,56,0.00,,SKC,0.00,VWS V12.07,2013-09-06 00:13:00,
2013-09-05 19:19:00,79.2,62.2,30.11,ESE,123,1.0,2.0,56,0.00,,SKC,0.00,VWS V12.07,2013-09-06 00:19:00,
2013-09-05 19:25:00,78.7,62.2,30.11,ESE,112,0.0,2.0,57,0.00,,SKC,0.00,VWS V12.07,2013-09-06 00:25:00,
2013-09-05 19:31:00,78.5,62.5,30.12,ESE,112,0.0,0.0,58,0.00,,SKC,0.00,VWS V12.07,2013-09-06 00:31:00,
2013-09-05 19:37:00,78.1,62.1,30.12,ESE,117,0.0,0.0,58,0.00,,SKC,0.00,VWS V12.07,2013-09-06 00:37:00,
2013-09-05 19:43:00,77.5,62.1,30.12,ESE,117,0.0,0.0,59,0.00,,SKC,0.00,VWS V12.07,2013-09-06 00:43:00,
2013-09-05 19:49:00,77.1,62.2,30.12,ESE,116,0.0,0.0,60,0.00,,SKC,0.00,VWS V12.07,2013-09-06 00:49:00,
2013-09-05 19:55:00,76.7,62.2,30.12,ESE,120,1.0,1.0,61,0.00,,SKC,0.00,VWS V12.07,2013-09-06 00:55:00,
2013-09-05 20:01:00,76.3,61.9,30.12,SE,136,1.0,1.0,61,0.00,,SKC,0.00,VWS V12.07,2013-09-06 01:01:00,
2013-09-05 20:07:00,75.9,62.0,30.12,SE,135,0.0,1.0,62,0.00,,SKC,0.00,VWS V12.07,2013-09-06 01:07:00,
2013-09-05 20:13:00,75.1,62.1,30.13,SE,135,0.0,1.0,64,0.00,,SKC,0.00,VWS V12.07,2013-09-06 01:13:00,
2013-09-05 20:19:00,74.6,62.1,30.13,SE,126,0.0,1.0,65,0.00,,SKC,0.00,VWS V12.07,2013-09-06 01:19:00,
2013-09-05 20:25:00,74.3,61.8,30.13,SE,125,0.0,1.0,65,0.00,,SKC,0.00,VWS V12.07,2013-09-06 01:25:00,
2013-09-05 20:31:00,74.1,62.0,30.13,SE,125,0.0,0.0,66,0.00,,SKC,0.00,VWS V12.07,2013-09-06 01:31:00,
2013-09-05 20:37:00,74.2,62.1,30.14,SE,125,0.0,0.0,66,0.00,,SKC,0.00,VWS V12.07,2013-09-06 01:37:00,
2013-09-05 20:43:00,74.2,62.1,30.14,ESE,114,1.0,1.0,66,0.00,,SKC,0.00,VWS V12.07,2013-09-06 01:43:00,
2013-09-05 20:49:00,73.8,61.7,30.14,ESE,113,0.0,1.0,66,0.00,,SKC,0.00,VWS V12.07,2013-09-06 01:49:00,
2013-09-05 20:55:00,73.5,61.9,30.14,ESE,120,0.0,1.0,67,0.00,,SKC,0.00,VWS V12.07,2013-09-06 01:55:00,
2013-09-05 21:01:00,73.0,61.4,30.14,ESE,120,0.0,0.0,67,0.00,,SKC,0.00,VWS V12.07,2013-09-06 02:01:00,
2013-09-05 21:07:00,72.7,61.5,30.14,SE,134,0.0,1.0,68,0.00,,SKC,0.00,VWS V12.07,2013-09-06 02:07:00,
2013-09-05 21:13:00,72.1,61.4,30.14,SE,134,0.0,1.0,69,0.00,,SKC,0.00,VWS V12.07,2013-09-06 02:13:00,
2013-09-05 21:19:00,71.8,61.5,30.14,SE,134,0.0,1.0,70,0.00,,SKC,0.00,VWS V12.07,2013-09-06 02:19:00,
2013-09-05 21:27:00,71.8,61.1,30.14,ESE,116,0.0,1.0,69,0.00,,SKC,0.00,VWS V12.07,2013-09-06 02:27:00,
2013-09-05 21:33:00,71.3,61.4,30.14,ESE,116,0.0,0.0,71,0.00,,SKC,0.00,VWS V12.07,2013-09-06 02:33:00,
2013-09-05 21:39:00,71.1,61.2,30.14,SE,129,1.0,1.0,71,0.00,,SKC,0.00,VWS V12.07,2013-09-06 02:39:00,
2013-09-05 21:45:00,71.3,61.4,30.14,ESE,120,0.0,1.0,71,0.00,,SKC,0.00,VWS V12.07,2013-09-06 02:45:00,
2013-09-05 21:51:00,71.4,61.1,30.14,SE,125,0.0,1.0,70,0.00,,SKC,0.00,VWS V12.07,2013-09-06 02:51:00,
2013-09-05 21:57:00,71.3,61.0,30.14,SE,125,0.0,1.0,70,0.00,,SKC,0.00,VWS V12.07,2013-09-06 02:57:00,
2013-09-05 22:03:00,71.4,61.5,30.14,SE,142,1.0,2.0,71,0.00,,SKC,0.00,VWS V12.07,2013-09-06 03:03:00,
2013-09-05 22:09:00,71.4,61.1,30.14,SE,138,1.0,2.0,70,0.00,,SKC,0.00,VWS V12.07,2013-09-06 03:09:00,
2013-09-05 22:15:00,71.4,61.5,30.15,SE,136,1.0,2.0,71,0.00,,SKC,0.00,VWS V12.07,2013-09-06 03:15:00,
2013-09-05 22:21:00,71.4,61.5,30.15,ESE,122,1.0,2.0,71,0.00,,SKC,0.00,VWS V12.07,2013-09-06 03:21:00,
2013-09-05 22:27:00,71.2,61.3,30.15,SE,125,0.0,2.0,71,0.00,,SKC,0.00,VWS V12.07,2013-09-06 03:27:00,
2013-09-05 22:33:00,71.2,61.3,30.15,SE,129,0.0,1.0,71,0.00,,SKC,0.00,VWS V12.07,2013-09-06 03:33:00,
2013-09-05 22:39:00,71.1,61.2,30.15,SE,127,0.0,1.0,71,0.00,,SKC,0.00,VWS V12.07,2013-09-06 03:39:00,
2013-09-05 22:45:00,70.9,61.4,30.15,SE,127,0.0,1.0,72,0.00,,SKC,0.00,VWS V12.07,2013-09-06 03:45:00,
2013-09-05 22:51:00,70.4,61.3,30.15,SE,129,0.0,1.0,73,0.00,,SKC,0.00,VWS V12.07,2013-09-06 03:51:00,
2013-09-05 22:57:00,69.9,61.2,30.15,SE,129,0.0,1.0,74,0.00,,SKC,0.00,VWS V12.07,2013-09-06 03:57:00,
2013-09-05 23:03:00,69.6,61.3,30.15,SE,128,0.0,0.0,75,0.00,,SKC,0.00,VWS V12.07,2013-09-06 04:03:00,
2013-09-05 23:06:00,69.4,61.5,30.15,SE,129,0.0,0.0,76,0.00,,SKC,0.00,VWS V12.07,2013-09-06 04:06:00,
2013-09-05 23:12:00,68.8,61.3,30.15,SE,129,0.0,0.0,77,0.00,,SKC,0.00,VWS V12.07,2013-09-06 04:12:00,
2013-09-05 23:15:00,68.6,61.1,30.15,SE,128,0.0,0.0,77,0.00,,SKC,0.00,VWS V12.07,2013-09-06 04:15:00,
2013-09-05 23:21:00,68.0,60.9,30.15,SE,129,0.0,0.0,78,0.00,,SKC,0.00,VWS V12.07,2013-09-06 04:21:00,
2013-09-05 23:24:00,67.7,60.6,30.15,SE,128,0.0,0.0,78,0.00,,SKC,0.00,VWS V12.07,2013-09-06 04:24:00,
2013-09-05 23:30:00,67.3,60.2,30.15,SE,128,0.0,0.0,78,0.00,,SKC,0.00,VWS V12.07,2013-09-06 04:30:00,
2013-09-05 23:36:00,66.9,60.5,30.15,SE,128,0.0,0.0,80,0.00,,SKC,0.00,VWS V12.07,2013-09-06 04:36:00,
2013-09-05 23:42:00,66.5,60.5,30.15,SE,129,0.0,0.0,81,0.00,,SKC,0.00,VWS V12.07,2013-09-06 04:42:00,
2013-09-05 23:48:00,66.4,60.7,30.15,SE,129,0.0,0.0,82,0.00,,SKC,0.00,VWS V12.07,2013-09-06 04:48:00,
2013-09-05 23:54:00,66.3,61.0,30.16,SE,128,0.0,0.0,83,0.00,,SKC,0.00,VWS V12.07,2013-09-06 04:54:00,